Find Starlink 4711

NORAD ID: 53701 Int'l Des: 2022-107 Owner: SPXS Country: US Constellation: starlink operational
LEOCIRCULAR

实时位置

正在加载3D地球...

关于 Starlink 4711

正在加载描述...

即将过境

Passes for default location (London). Set your location on the main map for personalized predictions.

高度历史

Loading altitude history...

两行轨道根数

1 53701U 22107B 26125.81495267 .00000309 00000-0 37476-4 0 9999
2 53701 53.2182 347.2635 0001316 88.3036 271.8107 15.08847491203488
Epoch: May 5, 2026 • Age: 11 hours

当前状态

高度 543.0 km
速度 7.59 km/s
星下点 -11.20°S, 13.2°E
发射日期 Sep 5, 2022
运行时间 3.6 years
类型 internet

技术详情

分类 Payload
质量 305.00 kg
干质量 290.00 kg
总质量 305.00 kg
长度 0.20 m
直径 2.80 m
跨度 9.00 m
形状 Box + pan
制造商 SPXS
平台类型 Starlink
阶段状态 In Orbit
所有者/国家 SPXS/US

Most Searched